Stations météo

réclame
Mon MeteoGroup
Shoreham Airport, Grande-Bretagne (3876): Température de l'air & dewpoint: 19.09.2018 08:00:00 - 25.09.2018 08:00:00 (BST)Shoreham Airport, Grande-Bretagne (3876): Vitesse du vent & gusts: 19.09.2018 08:00:00 - 25.09.2018 08:00:00 (BST)Shoreham Airport, Grande-Bretagne (3876): Direction du vent: 19.09.2018 08:00:00 - 25.09.2018 08:00:00 (BST)Shoreham Airport, Grande-Bretagne (3876): reduced air pressure: 19.09.2018 08:00:00 - 25.09.2018 08:00:00 (BST)Shoreham Airport, Grande-Bretagne (3876): visibility: 19.09.2018 08:00:00 - 25.09.2018 08:00:00 (BST)Shoreham Airport, Grande-Bretagne (3876): Quantités de précipitations: 19.09.2018 08:00:00 - 25.09.2018 08:00:00 (BST)
Date & Time tt [°C] td [°C] ff [km/h] ff [knt] fx [km/h] fx [knt] dd ppp [hPa] vv [km] rr [mm]
25.09.2018 08:00:00 4,7 3,8 13 7 - - N 1038,3 10 0,0
25.09.2018 07:00:00 3,8 2,9 15 8 - - N 1038,4 - 0,0
25.09.2018 06:00:00 4,1 3,2 21 11 - - N 1038,3 - 0,0
25.09.2018 05:00:00 3,9 3,2 21 11 - - N 1038,5 - 0,0
25.09.2018 04:00:00 4,3 3,2 18 10 - - N 1038,3 - 0,0
25.09.2018 03:00:00 4,9 3,6 13 7 - - N 1038,5 - 0,0
25.09.2018 02:00:00 5,0 3,4 15 8 - - N 1038,8 - 0,0
25.09.2018 01:00:00 5,6 4,0 13 7 - - N 1039,0 - 0,0
25.09.2018 00:00:00 5,1 3,7 11 6 - - N 1038,8 - 0,0
24.09.2018 23:00:00 6,1 3,6 11 6 - - N 1039,0 - 0,0
24.09.2018 22:00:00 6,7 4,2 9 5 - - N 1038,7 - 0,0
24.09.2018 21:00:00 5,9 3,8 11 6 - - N 1038,5 - 0,0
24.09.2018 20:00:00 7,0 3,4 5 3 - - NNW 1038,1 10 0,0
24.09.2018 19:00:00 10,9 4,9 5 3 - - NW 1037,5 10 0,0
24.09.2018 18:00:00 13,4 3,8 8 4 - - NNW 1037,1 10 0,0
24.09.2018 17:00:00 14,7 4,1 8 4 - - NW 1037,1 10 0,0
24.09.2018 16:00:00 14,0 4,3 13 7 - - NNW 1037,5 10 0,0
24.09.2018 15:00:00 15,2 5,4 15 8 - - NW 1038,0 10 0,0
24.09.2018 14:00:00 15,1 5,9 11 6 - - N 1038,0 - 0,0
24.09.2018 13:00:00 14,2 5,8 11 6 - - N 1038,1 10 0,0
24.09.2018 12:00:00 13,5 6,0 18 10 - - NNW 1038,5 10 0,0
24.09.2018 11:00:00 11,9 7,2 15 8 - - NNW 1038,2 10 0,0
24.09.2018 10:00:00 10,1 7,4 11 6 - - N 1037,8 10 0,0
24.09.2018 09:00:00 8,1 6,6 13 7 - - N 1037,3 10 0,0
24.09.2018 08:00:00 6,3 5,2 16 9 - - N 1036,4 - 0,0
24.09.2018 07:00:00 5,6 4,6 13 7 - - N 1035,8 - 0,0
24.09.2018 06:00:00 6,2 4,8 15 8 - - NNW 1035,4 - 0,0
24.09.2018 05:00:00 6,9 5,2 21 11 - - N 1034,8 - 0,0
24.09.2018 04:00:00 6,7 5,0 18 10 - - NNW 1034,5 - 0,0
24.09.2018 03:00:00 6,3 5,0 15 8 - - N 1033,9 - 0,0
24.09.2018 02:00:00 5,7 4,4 11 6 - - NNW 1033,4 - 0,0
24.09.2018 01:00:00 6,0 4,2 9 5 - - NNW 1032,5 - 0,0
24.09.2018 00:00:00 6,2 4,0 9 5 - - N 1031,4 - 0,0
23.09.2018 23:00:00 6,6 4,7 11 6 - - NNW 1030,5 - 0,0
23.09.2018 22:00:00 7,0 4,5 9 5 - - NNW 1029,3 - 0,0
23.09.2018 21:00:00 8,1 4,7 11 6 - - N 1028,1 - 0,0
23.09.2018 20:00:00 8,9 4,1 8 4 - - NNW 1026,7 - 0,0
23.09.2018 19:00:00 10,5 4,3 11 6 - - NW 1024,8 10 0,0
23.09.2018 18:00:00 12,7 5,8 22 12 - - NW 1023,3 10 0,0
23.09.2018 17:00:00 12,5 5,8 26 14 - - NW 1022,2 10 0,0
23.09.2018 16:00:00 12,1 6,8 24 13 - - NW 1021,4 10 0,0
23.09.2018 15:00:00 11,6 8,0 26 14 - - NNW 1020,0 10 0,0
23.09.2018 14:00:00 9,2 7,3 26 14 - - NNW 1019,1 10 0,6
23.09.2018 13:00:00 9,3 7,4 35 19 57 31 NNW 1017,8 8 0,0
23.09.2018 12:00:00 10,7 9,3 31 17 50 27 N 1015,4 10 0,2
23.09.2018 11:00:00 10,4 9,9 29 16 - - N 1014,0 6 1,4
23.09.2018 10:00:00 9,7 9,2 26 14 50 27 N 1014,0 5 4,0
23.09.2018 09:00:00 10,1 9,5 22 12 - - N 1011,6 5 2,4
23.09.2018 08:00:00 10,9 10,2 16 9 - - N 1011,6 - 0,6
23.09.2018 07:00:00 11,2 10,7 16 9 - - N 1012,0 - 0,2
23.09.2018 06:00:00 11,8 11,2 11 6 - - NNE 1012,5 - 0,2
23.09.2018 05:00:00 12,1 11,3 13 7 - - NNE 1012,2 - 0,0
23.09.2018 04:00:00 11,9 11,4 13 7 - - NNE 1012,6 - 0,0
23.09.2018 03:00:00 11,7 11,1 15 8 - - NNE 1012,8 - 0,0
23.09.2018 02:00:00 12,1 11,3 15 8 - - N 1012,7 - 0,0
23.09.2018 01:00:00 12,1 11,1 13 7 - - N 1012,8 - 0,0
23.09.2018 00:00:00 12,2 11,3 13 7 - - NE 1012,2 - 0,0
22.09.2018 23:00:00 12,0 11,3 16 9 - - NE 1012,3 - 0,0
22.09.2018 22:00:00 12,0 11,3 18 10 - - ENE 1012,3 - 0,0
22.09.2018 21:00:00 11,7 11,1 16 9 - - ENE 1012,5 - 1,0
22.09.2018 20:00:00 12,0 11,2 16 9 - - E 1013,2 - 1,6
22.09.2018 19:00:00 12,3 11,5 24 13 - - ESE 1013,4 - 2,0
22.09.2018 18:00:00 11,7 11,0 16 9 - - ESE 1014,5 2,5 3,4
22.09.2018 17:00:00 11,4 10,5 15 8 - - E 1015,4 3,0 0,8
22.09.2018 16:00:00 11,8 10,2 13 7 - - SE 1017,1 3,5 2,8
22.09.2018 15:00:00 11,6 9,9 8 4 - - E 1018,3 3,5 2,0
22.09.2018 14:00:00 12,0 8,7 2 1 - - SSW 1019,1 7 0,4
22.09.2018 13:00:00 12,4 8,3 11 6 - - WSW 1019,8 10 0,0
22.09.2018 12:00:00 13,3 8,7 18 10 - - WSW 1020,4 10 0,0
22.09.2018 11:00:00 14,3 9,6 9 5 - - WSW 1020,3 10 0,0
22.09.2018 10:00:00 13,5 8,3 13 7 - - WSW 1020,1 10 0,0
22.09.2018 09:00:00 13,3 9,4 11 6 - - W 1020,0 10 0,0
22.09.2018 08:00:00 12,5 9,4 11 6 - - W 1019,8 - 0,0
22.09.2018 07:00:00 11,5 8,8 8 4 - - WSW 1019,9 - 0,0
22.09.2018 06:00:00 11,7 8,9 11 6 - - W 1019,6 - 0,0
22.09.2018 05:00:00 11,4 8,8 11 6 - - W 1019,8 - 0,0
22.09.2018 04:00:00 11,3 8,7 9 5 - - W 1020,0 - 0,0
22.09.2018 03:00:00 10,7 8,5 11 6 - - WSW 1019,8 - 0,0
22.09.2018 02:00:00 9,8 7,6 9 5 - - W 1020,1 - 0,0
22.09.2018 01:00:00 9,5 6,9 8 4 - - WSW 1019,8 - 0,0
22.09.2018 00:00:00 9,7 7,0 11 6 - - W 1019,8 - 0,0
21.09.2018 23:00:00 10,2 7,2 11 6 - - WNW 1019,2 - 0,0
21.09.2018 22:00:00 10,4 6,9 5 3 - - WSW 1018,7 - 0,0
21.09.2018 21:00:00 11,1 7,2 11 6 - - WSW 1017,9 - 0,0
21.09.2018 20:00:00 13,2 6,9 18 10 - - W 1017,0 - 0,0
21.09.2018 19:00:00 14,2 6,5 21 11 48 26 W 1015,5 10 0,0
21.09.2018 18:00:00 15,8 6,3 31 17 52 28 W 1014,2 10 0,0
21.09.2018 17:00:00 15,8 6,7 26 14 46 25 W 1013,6 10 0,0
21.09.2018 16:00:00 16,0 7,2 39 21 68 37 W 1013,2 10 0,0
21.09.2018 15:00:00 17,1 7,8 46 25 67 36 WSW 1012,6 10 0,0
21.09.2018 14:00:00 16,4 6,2 42 23 61 33 WSW 1012,1 10 0,0
21.09.2018 13:00:00 15,6 6,8 31 17 55 30 W 1011,6 10 0,0
21.09.2018 12:00:00 15,0 6,3 39 21 61 33 W 1011,1 10 0,0
21.09.2018 11:00:00 14,1 6,5 37 20 54 29 W 1010,6 10 0,0
21.09.2018 10:00:00 13,2 8,0 28 15 48 26 W 1010,0 10 0,0
21.09.2018 09:00:00 11,6 6,6 28 15 - - W 1009,1 10 0,0
21.09.2018 08:00:00 11,0 7,2 24 13 - - W 1007,5 10 0,0
21.09.2018 07:00:00 11,7 7,9 24 13 - - W 1005,8 - 0,0
21.09.2018 06:00:00 12,4 9,2 22 12 - - W 1004,1 - 0,0
21.09.2018 05:00:00 12,9 9,3 24 13 - - W 1002,7 - 0,0
21.09.2018 04:00:00 14,0 11,0 31 17 57 31 W 1001,6 - 0,2
21.09.2018 03:00:00 15,0 14,7 34 18 78 42 WSW 1000,5 - 4,2
21.09.2018 02:00:00 17,7 16,6 46 25 76 41 SSW 999,8 - 0,6
21.09.2018 01:00:00 18,2 16,5 48 26 67 36 S 1001,4 - 0,2
21.09.2018 00:00:00 18,8 16,1 42 23 61 33 S 1002,6 - 0,0
20.09.2018 23:00:00 19,1 15,6 42 23 63 34 S 1003,8 - 0,0
20.09.2018 22:00:00 19,4 15,4 39 21 57 31 SSW 1005,1 - 0,0
20.09.2018 21:00:00 19,3 15,5 39 21 54 29 SSW 1006,2 - 0,0
20.09.2018 20:00:00 19,0 16,3 26 14 - - S 1007,1 - 0,0
20.09.2018 19:00:00 18,8 16,3 31 17 - - SSW 1008,0 - 0,0
20.09.2018 18:00:00 19,2 16,4 26 14 - - SSW 1009,1 8 0,0
20.09.2018 17:00:00 19,2 16,4 22 12 - - SSW 1010,1 10 0,0
20.09.2018 16:00:00 19,3 16,7 16 9 - - S 1011,1 10 0,0
20.09.2018 15:00:00 19,2 15,8 29 16 46 25 SSW 1012,0 10 0,0
20.09.2018 14:00:00 19,2 15,9 34 18 50 27 SSW 1012,6 10 0,0
20.09.2018 13:00:00 19,0 15,8 31 17 50 27 SSW 1013,0 10 0,0
20.09.2018 12:00:00 19,1 16,0 35 19 50 27 SSW 1013,6 10 0,0
20.09.2018 11:00:00 18,6 15,9 34 18 50 27 SSW 1014,0 8 0,0
20.09.2018 10:00:00 18,4 16,0 29 16 48 26 SSW 1014,0 8 0,0
20.09.2018 09:00:00 18,1 15,7 35 19 50 27 SSW 1014,2 9 0,0
20.09.2018 08:00:00 17,9 15,4 35 19 48 26 SW 1014,3 10 0,0
20.09.2018 07:00:00 17,8 15,4 37 20 52 28 SW 1014,2 - 0,0
20.09.2018 06:00:00 17,8 15,7 31 17 46 25 SW 1014,2 - 0,0
20.09.2018 05:00:00 18,0 15,2 28 15 50 27 SW 1014,4 - 0,0
20.09.2018 04:00:00 17,7 16,1 29 16 50 27 SSW 1014,5 - 0,0
20.09.2018 03:00:00 17,9 15,9 34 18 - - SW 1014,9 - 0,0
20.09.2018 02:00:00 17,6 15,7 26 14 - - SW 1015,1 - 0,0
20.09.2018 01:00:00 17,3 16,1 22 12 - - SW 1015,1 - 0,0
20.09.2018 00:00:00 17,3 15,9 16 9 - - SW 1015,4 - 0,0
19.09.2018 23:00:00 17,7 16,3 18 10 - - SW 1015,8 - 0,0
19.09.2018 22:00:00 17,6 16,1 18 10 - - SW 1016,0 - 0,0
19.09.2018 21:00:00 17,9 16,0 24 13 - - SW 1016,0 - 0,0
19.09.2018 20:00:00 17,9 16,3 28 15 50 27 SW 1015,4 - 0,0
19.09.2018 19:00:00 18,3 16,0 29 16 54 29 SW 1015,3 10 0,0
19.09.2018 18:00:00 18,9 16,4 37 20 55 30 SW 1015,0 10 0,0
19.09.2018 17:00:00 19,4 16,5 37 20 61 33 SW 1014,9 10 0,0
19.09.2018 16:00:00 19,6 16,6 42 23 63 34 SW 1014,8 10 0,0
19.09.2018 15:00:00 20,8 16,9 34 18 61 33 SW 1014,8 9 0,0
19.09.2018 14:00:00 20,1 16,6 41 22 61 33 SW 1014,7 9 0,0
19.09.2018 13:00:00 19,7 16,4 41 22 54 29 SSW 1014,6 9 0,0
19.09.2018 12:00:00 19,7 16,6 37 20 55 30 SSW 1014,3 8 0,0
19.09.2018 11:00:00 18,9 16,4 39 21 54 29 SSW 1014,3 9 0,0
19.09.2018 10:00:00 18,7 16,4 37 20 50 27 SSW 1014,2 7 0,0
19.09.2018 09:00:00 18,5 16,4 34 18 48 26 SSW 1013,9 7 0,0
19.09.2018 08:00:00 18,3 16,3 31 17 - - SSW 1013,7 7 0,0

tt = Température de l'air
td = dewpoint
ff = Vitesse du vent
fx = gusts
dd = Direction du vent
ppp = reduced air pressure
vv = visibility
rr = Quantités de précipitations

stations d'obs. à proximité